Delaware, OH

1:18 AM EST on December 11, 2017 (GMT -0500)
Delaware Municipal

Weather History for KDLZ - November, 2012

Change the Weather History Date:

Friday, November 23, 2012

  Actual Average Record
Temperature  
Mean Temperature 40 °F -  
Max Temperature 51 °F 46 °F 66 °F (1963)
Min Temperature 30 °F 27 °F 10 °F (1937)
Degree Days  
Heating Degree Days 24    
Moisture  
Dew Point 31 °F    
Average Humidity 70    
Maximum Humidity 87    
Minimum Humidity 61    
Precipitation  
Precipitation 0.01 in - - ()
Sea Level Pressure  
Sea Level Pressure 29.98 in    
Wind  
Wind Speed 14 mph (WSW)    
Max Wind Speed 28 mph    
Max Gust Speed 39 mph    
Visibility 10 miles    
Events Rain    
Averages and records for this station are not official NWS values.
T = Trace of Precipitation, MM = Missing Value Source: NWS Daily Summary

Daily Weather History Graph

Daily Weather History Graph

Search for Another Location

Airport or City:

Trip Planner

Search our weather history database for the weather conditions in past years. The results will help you decide how hot, cold, wet, or windy it might be!

Date:

Astronomy

Nov. 23, 2012 Rise Set
Actual Time 7:27 AM EST 5:09 PM EST
Civil Twilight 6:58 AM EST 5:39 PM EST
Nautical Twilight 6:24 AM EST 6:12 PM EST
Astronomical Twilight 5:52 AM EST 6:45 PM EST
Moon 2:24 PM EST (11/23) 2:45 AM EST (11/23)
Length of Visible Light 10h 41m
Length of Day
9h 41m
Waxing Gibbous, 79% of the Moon is Illuminated
Nov 23
Waxing Gibbous
Nov 28
Full
Dec 6
Last Quarter
Dec 13
New
Dec 20
First Quarter

Hourly Weather History & Observations

Time (EST) Temp. Windchill Dew Point Humidity Pressure Visibility Wind Dir Wind Speed Gust Speed Precip Events Conditions
12:18 AM 50.0 °F - 39.2 °F 66% 29.98 in 10.0 mi SSW 10.4 mph - N/A   Clear
12:39 AM 50.0 °F - 39.2 °F 66% 29.97 in 10.0 mi SSW 12.7 mph - N/A   Clear
12:58 AM 50.0 °F - 39.2 °F 66% 29.96 in 10.0 mi SSW 17.3 mph 20.7 mph N/A   Clear
1:19 AM 50.0 °F - 39.2 °F 66% 29.95 in 10.0 mi SSW 15.0 mph 21.9 mph N/A   Clear
1:58 AM 50.0 °F - 39.2 °F 66% 29.93 in 10.0 mi SSW 11.5 mph - N/A   Clear
2:19 AM 50.0 °F - 39.2 °F 66% 29.92 in 10.0 mi SSW 12.7 mph 18.4 mph N/A   Scattered Clouds
2:39 AM 50.0 °F - 39.2 °F 66% 29.92 in 10.0 mi SSW 13.8 mph - N/A   Scattered Clouds
2:58 AM 51.8 °F - 39.2 °F 62% 29.92 in 10.0 mi SSW 13.8 mph 18.4 mph N/A   Mostly Cloudy
3:19 AM 51.8 °F - 39.2 °F 62% 29.92 in 10.0 mi SSW 15.0 mph 19.6 mph N/A   Overcast
3:38 AM 51.8 °F - 39.2 °F 62% 29.91 in 10.0 mi SSW 15.0 mph 19.6 mph N/A   Overcast
3:58 AM 51.8 °F - 41.0 °F 67% 29.91 in 10.0 mi SW 15.0 mph 19.6 mph N/A   Overcast
4:19 AM 51.8 °F - 41.0 °F 67% 29.90 in 10.0 mi SW 11.5 mph 19.6 mph N/A Rain Rain
4:39 AM 51.8 °F - 42.8 °F 71% 29.90 in 10.0 mi SW 12.7 mph 20.7 mph N/A   Drizzle
4:58 AM 50.0 °F - 42.8 °F 76% 29.89 in 10.0 mi SW 12.7 mph 17.3 mph N/A Rain Light Rain
5:19 AM 50.0 °F - 42.8 °F 76% 29.89 in 10.0 mi SW 13.8 mph - N/A   Drizzle
5:38 AM 50.0 °F - 42.8 °F 76% 29.89 in 10.0 mi SW 11.5 mph 18.4 mph N/A Rain Rain
5:58 AM 50.0 °F - 44.6 °F 82% 29.88 in 10.0 mi SW 10.4 mph 16.1 mph 0.01 in   Drizzle
6:19 AM 50.0 °F - 44.6 °F 82% 29.89 in 10.0 mi SW 12.7 mph - N/A   Overcast
6:38 AM 50.0 °F - 44.6 °F 82% 29.89 in 7.0 mi WSW 10.4 mph 17.3 mph N/A Rain Rain
6:58 AM 50.0 °F - 46.4 °F 87% 29.88 in 10.0 mi WSW 11.5 mph 16.1 mph N/A   Light Drizzle
7:19 AM 50.0 °F - 46.4 °F 87% 29.88 in 10.0 mi SW 10.4 mph - N/A   Overcast
7:38 AM 50.0 °F - 46.4 °F 87% 29.89 in 10.0 mi WSW 9.2 mph - N/A   Overcast
7:58 AM 50.0 °F - 44.6 °F 82% 29.89 in 10.0 mi West 8.1 mph - N/A   Overcast
8:19 AM 46.4 °F 40.4 °F 37.4 °F 71% 29.90 in 10.0 mi West 13.8 mph 19.6 mph N/A   Mostly Cloudy
8:38 AM 44.6 °F 36.9 °F 35.6 °F 71% 29.92 in 10.0 mi West 18.4 mph 26.5 mph N/A   Mostly Cloudy
8:58 AM 42.8 °F 37.5 °F 37.4 °F 81% 29.92 in 10.0 mi West 9.2 mph - N/A   Scattered Clouds
9:19 AM 42.8 °F 35.1 °F 35.6 °F 76% 29.93 in 10.0 mi West 16.1 mph 21.9 mph N/A   Scattered Clouds
9:38 AM 41.0 °F 34.3 °F 35.6 °F 81% 29.92 in 10.0 mi West 11.5 mph 18.4 mph N/A   Mostly Cloudy
9:58 AM 41.0 °F 33.9 °F 33.8 °F 76% 29.93 in 10.0 mi West 12.7 mph 24.2 mph N/A   Scattered Clouds
10:19 AM 41.0 °F 33.5 °F 33.8 °F 76% 29.93 in 10.0 mi West 13.8 mph 18.4 mph N/A   Clear
10:38 AM 42.8 °F 34.0 °F 32.0 °F 66% 29.94 in 10.0 mi West 20.7 mph - N/A   Clear
10:59 AM 42.8 °F 34.3 °F 32.0 °F 66% 29.95 in 10.0 mi West 19.6 mph 27.6 mph N/A   Scattered Clouds
11:19 AM 42.8 °F 35.1 °F 33.8 °F 70% 29.94 in 10.0 mi West 16.1 mph - N/A   Scattered Clouds
11:38 AM 44.6 °F 37.4 °F 32.0 °F 61% 29.93 in 10.0 mi West 16.1 mph 24.2 mph N/A   Mostly Cloudy
11:59 AM 42.8 °F 34.5 °F 32.0 °F 66% 29.93 in 10.0 mi West 18.4 mph 27.6 mph N/A   Mostly Cloudy
12:19 PM 42.8 °F 34.0 °F 32.0 °F 66% 29.92 in 10.0 mi West 20.7 mph 28.8 mph N/A   Mostly Cloudy
12:38 PM 41.0 °F 32.8 °F 30.2 °F 65% 29.92 in 10.0 mi West 16.1 mph 29.9 mph N/A   Mostly Cloudy
12:59 PM 41.0 °F 31.4 °F 30.2 °F 65% 29.92 in 10.0 mi West 21.9 mph 29.9 mph N/A   Overcast
1:18 PM 39.2 °F 31.6 °F 30.2 °F 70% 29.92 in 10.0 mi WSW 12.7 mph 29.9 mph N/A   Overcast
1:38 PM 39.2 °F 29.3 °F 28.4 °F 65% 29.93 in 10.0 mi West 20.7 mph 35.7 mph N/A   Overcast
1:59 PM 37.4 °F 26.9 °F 26.6 °F 65% 29.94 in 10.0 mi West 20.7 mph 32.2 mph N/A   Overcast
2:18 PM 35.6 °F 23.7 °F 26.6 °F 70% 29.95 in 10.0 mi West 24.2 mph 34.5 mph N/A   Overcast
2:38 PM 33.8 °F 21.9 °F 26.6 °F 75% 29.96 in 10.0 mi West 21.9 mph 29.9 mph N/A   Overcast
2:59 PM 33.8 °F 22.2 °F 24.8 °F 70% 29.97 in 10.0 mi West 20.7 mph 31.1 mph N/A   Overcast
3:18 PM 33.8 °F 22.2 °F 24.8 °F 70% 29.98 in 10.0 mi West 20.7 mph 27.6 mph N/A   Overcast
3:38 PM 33.8 °F 21.6 °F 26.6 °F 75% 29.99 in 10.0 mi West 23.0 mph 28.8 mph N/A   Overcast
3:59 PM 33.8 °F 21.9 °F 26.6 °F 75% 30.00 in 10.0 mi West 21.9 mph 29.9 mph N/A   Overcast
4:18 PM 32.0 °F 19.2 °F 24.8 °F 75% 30.01 in 10.0 mi WNW 23.0 mph 39.1 mph N/A   Overcast
4:38 PM 32.0 °F 19.2 °F 24.8 °F 75% 30.02 in 10.0 mi West 23.0 mph 29.9 mph N/A   Overcast
4:59 PM 32.0 °F 18.1 °F 24.8 °F 75% 30.04 in 10.0 mi WNW 27.6 mph 32.2 mph N/A   Overcast
5:18 PM 32.0 °F 19.2 °F 23.0 °F 69% 30.05 in 10.0 mi WNW 23.0 mph 31.1 mph N/A   Overcast
5:39 PM 32.0 °F 20.1 °F 21.2 °F 64% 30.07 in 10.0 mi WNW 19.6 mph 32.2 mph N/A   Overcast
5:59 PM 30.2 °F 16.8 °F 21.2 °F 69% 30.07 in 10.0 mi West 23.0 mph 29.9 mph N/A   Overcast
6:18 PM 30.2 °F 18.1 °F 19.4 °F 64% 30.08 in 10.0 mi West 18.4 mph 28.8 mph N/A   Overcast
6:39 PM 30.2 °F 19.3 °F 19.4 °F 64% 30.09 in 10.0 mi West 15.0 mph 25.3 mph N/A   Overcast
6:59 PM 30.2 °F 18.5 °F 19.4 °F 64% 30.10 in 10.0 mi West 17.3 mph 23.0 mph N/A   Overcast
7:18 PM 30.2 °F 18.5 °F 19.4 °F 64% 30.10 in 10.0 mi West 17.3 mph 21.9 mph N/A   Overcast
7:39 PM 30.2 °F 20.2 °F 19.4 °F 64% 30.10 in 10.0 mi West 12.7 mph 27.6 mph N/A   Overcast
7:59 PM 30.2 °F 19.3 °F 19.4 °F 64% 30.10 in 10.0 mi West 15.0 mph 19.6 mph N/A   Overcast
8:18 PM 30.2 °F 19.8 °F 19.4 °F 64% 30.11 in 10.0 mi West 13.8 mph 18.4 mph N/A   Overcast
8:39 PM 30.2 °F 19.8 °F 21.2 °F 69% 30.11 in 10.0 mi West 13.8 mph 17.3 mph N/A   Overcast
8:59 PM 30.2 °F 22.6 °F 19.4 °F 64% 30.12 in 10.0 mi West 8.1 mph - N/A   Overcast
9:18 PM 30.2 °F 20.8 °F 19.4 °F 64% 30.11 in 10.0 mi West 11.5 mph - N/A   Overcast
9:39 PM 30.2 °F 20.8 °F 19.4 °F 64% 30.12 in 10.0 mi West 11.5 mph 20.7 mph N/A   Overcast
9:59 PM 30.2 °F 19.3 °F 21.2 °F 69% 30.12 in 10.0 mi West 15.0 mph 18.4 mph N/A   Overcast
10:18 PM 30.2 °F 21.3 °F 21.2 °F 69% 30.11 in 10.0 mi West 10.4 mph - N/A   Overcast
10:39 PM 30.2 °F 19.8 °F 21.2 °F 69% 30.10 in 10.0 mi West 13.8 mph - N/A   Overcast
10:59 PM 30.2 °F 20.8 °F 21.2 °F 69% 30.10 in 10.0 mi West 11.5 mph - N/A   Overcast
11:18 PM 30.2 °F 21.3 °F 21.2 °F 69% 30.10 in 10.0 mi West 10.4 mph 16.1 mph N/A   Overcast
11:39 PM 30.2 °F 21.3 °F 21.2 °F 69% 30.10 in 10.0 mi West 10.4 mph 20.7 mph N/A   Overcast
11:59 PM 30.2 °F 22.6 °F 21.2 °F 69% 30.10 in 10.0 mi West 8.1 mph - N/A   Overcast